This demonstration page uses our WeatherBlox Daily Observations layout. Learn more.

Left ArrowRight Arrow

Hourly Observations for May 30, 2021

Temp ( °F °C ) Dew Point ( °F °C ) Humidity (%) Winds ( mph kmh ) Pressure ( in mb ) Visibility ( mi km ) Precip ( " mm )
12:53 am 00:53 Clear 75 23.9 58 14.4 55 55 ESE 18 30 29.83 1010 10 16 0.00 0.00
1:53 am 01:53 Clear 73 22.8 60 15.6 64 64 SE 17 28 29.82 1010 10 16 0.00 0.00
2:53 am 02:53 Clear 72 22.2 60 15.6 66 66 ESE 15 24 29.82 1010 10 16 0.00 0.00
3:53 am 03:53 Clear 70 21.1 60 15.6 71 71 ESE 12 19 29.82 1010 10 16 0.00 0.00
4:53 am 04:53 Clear 69 20.6 60 15.6 73 73 ESE 12 19 29.83 1010 10 16 0.00 0.00
5:53 am 05:53 Clear 69 20.6 61 16.1 76 76 SSE 8 13 29.89 1012 10 16 0.00 0.00
6:53 am 06:53 Sunny 69 20.6 61 16.1 76 76 ESE 13 20 29.90 1012 10 16 0.00 0.00
7:53 am 07:53 Sunny 68 20 61 16.1 78 78 SE 18 30 29.86 1011 10 16 0.00 0.00
8:53 am 08:53 Partly Cloudy 68 20 61 16.1 78 78 S 13 20 29.93 1013 10 16 0.00 0.00
9:53 am 09:53 Mostly Cloudy with Light Rain 67 19.4 63 17.2 87 87 SSE 26 43 29.89 1012 8 13 0.01 0.25
10:53 am 10:53 Partly Cloudy 70 21.1 64 17.8 82 82 SE 26 43 29.86 1011 10 16 0.00 0.00
11:53 am 11:53 Sunny with Light Rain 69 20.6 63 17.2 81 81 SSE 23 37 29.87 1011 9 14 0.00 0.00
12:53 pm 12:53 Sunny 78 25.6 64 17.8 62 62 SSE 23 37 29.84 1011 10 16 0.00 0.00
1:53 pm 13:53 undefined 82 27.8 63 17.2 53 53 SSE 25 41 29.85 1011 10 16 0.00 0.00
2:53 pm 14:53 undefined 84 28.9 61 16.1 46 46 S 29 46 29.82 1010 10 16 0.00 0.00
3:53 pm 15:53 Sunny 84 28.9 59 15 43 43 SSE 26 43 29.81 1010 10 16 0.00 0.00
4:53 pm 16:53 undefined N/A N/A N/A undefined N/A N/A N/A 0.00 0.00
5:53 pm 17:53 Sunny 79 26.1 59 15 50 50 S 22 35 29.80 1009 10 16 0.00 0.00
6:53 pm 18:53 Sunny 77 25 60 15.6 56 56 SSE 22 35 29.82 1010 10 16 0.00 0.00
7:53 pm 19:53 Sunny 77 25 58 14.4 52 52 SE 18 30 29.82 1010 10 16 0.00 0.00
8:53 pm 20:53 Clear 75 23.9 59 15 58 58 ESE 17 28 29.85 1011 10 16 0.00 0.00
9:53 pm 21:53 Clear 73 22.8 61 16.1 66 66 ESE 15 24 29.86 1011 10 16 0.00 0.00
10:53 pm 22:53 Clear 72 22.2 61 16.1 68 68 E 9 15 29.88 1012 10 16 0.00 0.00
11:53 pm 23:53 Mostly Clear 71 21.7 61 16.1 71 71 E 12 19 29.88 1012 10 16 0.00 0.00

Powered by AerisWeather